Starlink 6155

operational
NORAD ID: 57076 Int'l Des: 2023-088 Owner: SPXS Country: US Constellation: starlink
LEOCIRCULAR

Über Starlink 6155

Beschreibung wird geladen...

Live-Position

3D-Globus wird geladen...

Nächste Überflüge

Höhenverlauf

Altitude vs Time

uPlot chart will show altitude changes over time

Zweizeiliger Elementsatz

1 57076U 23088AE 25354.84220005 -.00000304 00000-0 -74350-5 0 9999
2 57076 43.0013 163.3638 0001288 267.6258 92.4437 15.02531429138488
Epoch: 20. Dez. 2025 • Age: 9 hours

Aktueller Status

Höhe 571.5 km
Geschwindigkeit 7.58 km/s
Subsatellitenpunkt -43.10°S, 95.99°W
Startdatum 22. Juni 2023
Alter 2.4 years
Typ internet

Technische Details

Klassifizierung Payload
Masse 305.00 kg
Trockenmasse 290.00 kg
Gesamtmasse 305.00 kg
Länge 0.20 m
Durchmesser 2.80 m
Spannweite 9.00 m
Form Box + pan
Hersteller SPXS
Bus-Typ Starlink
Phasenstatus In Orbit
Besitzer/Staat SPXS/US

Große Konstellationen

Loading constellations...